Theta_e
318 316 315 313 315 320 322 321 318 312 312 311 312 317 317 317 312 319 319 310 310 309 310 310 310 311 312 313 315 317 318 319 321 323 325 326 328 327
310 308 309 310 310 312 313 316 317 319 309 315 317 319 320 318 313 319 315 309 308 307 307 307 307 308 308 309 310 312 314 316 317 318 319 320 321 321
302 302 301 303 302 305 307 310 311 316 313 314 316 316 315 316 316 316 316 315 314 306 306 306 306 307 307 308 308 308 309 311 313 315 316 317 318 318
304 300 299 302 299 301 303 304 307 310 311 311 313 313 313 314 313 311 311 311 311 307 304 304 305 306 307 307 308 308 309 310 312 312 313 313 313 314
306 305 302 301 298 299 300 301 303 304 306 307 310 311 311 309 310 312 310 311 309 304 305 306 307 307 308 309 309 309 308 309 309 310 311 311 311 311
300 302 301 300 299 299 300 300 301 302 303 307 306 307 308 307 309 304 304 305 305 307 307 307 308 309 310 310 309 308 307 307 307 307 307 308 308 310
297 299 302 304 303 302 302 301 301 302 302 302 303 304 303 302 299 302 302 303 304 307 308 312 310 312 311 309 308 306 304 304 304 304 305 306 305 306
302 300 300 300 302 301 300 300 300 301 300 300 300 297 298 300 302 301 299 300 299 308 306 306 312 309 311 309 303 303 302 302 302 302 303 303 304 305
302 303 301 301 302 302 298 299 299 299 300 303 301 301 301 303 304 301 300 302 301 305 307 304 309 307 309 308 302 302 301 301 301 301 301 301 301 301
302 301 302 303 301 302 303 303 303 305 305 304 305 304 305 306 305 303 305 307 307 308 309 303 307 306 311 309 302 301 300 300 300 301 301 302 301 300
303 302 303 304 297 297 304 302 303 301 301 300 300 300 300 300 301 307 304 303 302 306 309 304 306 307 311 305 303 301 300 300 300 300 301 301 301 300
303 303 299 299 297 297 303 303 302 302 304 306 305 305 303 304 301 307 306 303 302 302 308 304 305 306 300 301 300 300 301 300 300 300 299 300 300 305
303 302 303 297 297 297 298 304 302 302 301 302 302 304 307 307 306 307 308 306 303 303 304 303 302 301 300 298 299 300 300 299 300 300 300 298 299 302
300 302 302 296 296 297 300 297 298 302 303 302 300 299 300 300 302 304 304 304 302 301 303 303 300 298 298 296 295 298 298 299 299 298 299 300 299 297
302 300 298 298 298 300 298 299 300 301 301 300 299 298 300 302 303 303 303 303 304 302 302 303 300 299 298 295 294 296 296 296 298 297 298 298 297 299
303 306 302 300 299 302 304 303 302 302 300 299 299 299 301 301 301 301 300 301 298 298 300 302 300 299 296 297 296 294 296 294 297 297 297 297 297 297
305 305 303 303 303 302 301 303 302 302 300 300 299 298 298 300 299 301 300 299 296 296 296 299 300 300 298 298 295 296 295 295 297 297 296 295 296 297
302 300 299 299 299 300 301 300 300 300 301 300 300 300 299 298 299 299 299 298 296 297 296 299 300 299 299 299 298 296 296 296 297 298 298 295 294 296
301 302 303 301 299 299 300 301 299 301 302 301 299 299 299 299 298 298 298 298 296 298 298 299 300 298 294 291 296 297 298 298 298 296 296 294 293 294
304 305 304 303 301 301 299 300 302 303 302 302 302 302 299 299 298 298 298 298 298 298 297 298 297 296 297 294 293 295 294 301 299 296 295 300 298 295
303 304 304 304 305 304 303 301 303 303 301 303 301 302 303 303 301 300 298 292 294 298 298 297 297 289 304 303 297 293 294 296 299 303 303 303 301 300
303 303 304 304 305 306 304 304 302 302 305 307 305 304 304 304 302 302 300 298 298 299 297 298 299 303 303 300 296 296 298 299 297 296 296 296 300 296
303 303 302 303 305 306 305 303 303 305 304 305 309 309 309 309 304 303 302 300 298 298 297 296 300 304 301 300 296 300 301 301 300 298 297 295 295 295
Wind_Speed
8 8 6 6 7 5 2 2 2 4 5 4 4 3 5 6 6 6 7 11 13 12 11 10 9 9 9 7 6 6 6 6 8 11 20 26 25 20
9 11 10 8 8 7 7 7 6 1 4 6 7 7 4 3 6 4 6 3 12 10 8 7 7 6 6 7 8 8 8 8 8 9 9 9 8 10
12 13 13 12 9 8 8 7 5 6 9 5 7 5 5 5 5 5 3 5 3 10 7 7 6 6 7 8 9 10 10 11 11 10 10 9 11 13
12 11 9 9 12 11 8 8 8 8 6 6 5 4 3 3 4 5 4 4 5 10 5 5 4 7 8 9 11 12 11 10 11 11 12 13 14 15
12 12 11 12 11 8 9 9 8 6 6 3 2 2 2 4 2 1 3 3 4 3 9 9 4 6 8 8 9 8 9 9 10 10 10 12 13 13
11 11 9 10 8 8 6 6 6 5 5 2 2 2 1 4 1 6 4 5 5 7 5 5 7 7 11 12 13 11 10 8 6 6 9 9 9 8
8 9 10 13 15 12 3 7 5 1 2 2 4 3 4 7 5 3 3 3 3 2 2 1 4 2 6 6 9 12 12 10 9 8 7 6 7 8
9 8 9 8 13 11 10 10 10 5 4 5 4 5 4 3 4 6 6 4 3 6 3 3 3 4 4 6 12 12 12 11 11 11 10 8 7 6
10 8 9 7 5 7 4 5 6 6 7 5 4 4 6 5 4 5 2 0 2 4 5 3 5 4 5 3 11 13 12 11 11 11 11 11 9 8
10 9 9 10 11 10 7 8 6 4 3 3 4 4 5 4 4 4 2 2 2 1 4 4 5 4 3 4 11 13 11 12 12 14 11 10 11 11
10 11 10 9 10 10 6 5 5 6 4 3 3 3 3 3 5 4 2 1 2 2 3 4 4 7 3 5 8 15 13 13 13 17 12 11 11 3
7 7 13 11 10 10 6 6 5 6 5 5 5 3 4 7 2 4 5 6 4 3 6 6 4 5 2 3 5 6 6 11 11 11 14 10 10 3
8 8 8 11 9 8 8 8 7 5 6 5 4 3 3 5 5 6 8 7 7 3 10 6 5 5 1 2 2 4 6 6 5 6 9 14 12 7
7 7 7 9 8 11 8 7 7 4 4 5 4 4 4 4 4 5 7 7 5 4 6 5 2 3 3 2 3 3 5 7 6 6 6 7 16 20
7 7 8 7 2 6 9 8 7 5 5 5 5 5 4 3 3 3 4 3 6 8 7 7 4 4 4 3 2 3 3 7 8 7 7 8 8 7
3 5 4 4 5 4 6 6 6 6 5 5 4 4 4 4 4 3 2 4 5 5 7 8 8 6 6 5 4 6 7 4 6 7 7 8 8 8
10 10 9 9 8 6 7 9 7 7 6 5 5 4 4 4 4 3 3 4 3 2 3 4 8 10 9 7 5 6 6 6 6 5 8 8 9 8
5 6 6 6 7 8 7 5 7 8 5 4 5 5 4 4 3 4 3 3 3 3 2 1 2 2 4 9 16 5 5 5 5 6 6 8 9 9
8 9 8 5 6 6 5 6 3 4 6 5 4 4 4 4 4 4 3 3 4 4 4 4 5 6 6 4 3 16 4 4 5 7 7 7 7 6
10 9 7 8 7 4 5 5 5 4 3 4 4 4 3 3 3 4 3 4 4 5 5 5 5 4 5 3 2 3 13 2 5 5 5 7 8 15
11 9 9 9 8 8 7 4 6 3 2 1 1 3 3 3 4 4 5 5 4 4 5 5 3 2 3 3 6 5 6 12 9 3 2 2 7 7
11 11 10 10 9 8 9 8 4 6 5 0 1 2 2 1 3 4 5 3 3 4 4 3 0 4 2 6 7 6 8 9 13 16 17 14 7 8
10 9 10 10 9 9 8 9 8 6 7 7 3 1 3 0 5 3 4 5 3 3 3 2 3 2 5 6 6 6 9 8 8 10 11 15 17 14
Wind_Direction
16 28 28 20 10 11 316 59 99 134 135 162 136 107 124 112 28 88 92 79 74 62 57 49 39 27 22 15 353 331 318 315 326 289 258 249 246 247
28 36 24 26 21 30 19 30 22 70 115 159 103 102 80 110 77 38 73 182 102 72 42 26 15 5 345 334 319 312 302 294 293 297 301 304 293 273
48 35 46 36 33 0 33 19 30 355 109 98 111 88 100 22 22 7 337 313 127 90 40 1 354 338 318 308 293 285 279 278 275 275 272 274 275 271
66 73 44 52 38 17 27 32 27 28 7 95 70 123 54 25 4 318 344 332 330 84 12 319 319 325 313 301 286 278 279 287 286 280 271 258 255 257
47 55 54 56 56 41 21 23 16 13 21 344 64 71 29 34 312 191 322 321 263 130 218 217 16 330 337 305 271 263 260 267 272 267 263 264 265 264
40 43 50 61 71 63 53 43 27 358 4 32 82 99 24 87 23 16 357 5 336 32 76 42 333 59 54 52 50 45 40 37 17 314 267 252 254 255
44 45 35 64 69 64 50 51 30 2 351 52 99 88 59 51 36 351 357 23 140 46 16 352 52 49 53 63 34 29 13 6 360 349 341 310 247 245
61 61 74 63 66 71 59 51 36 36 36 44 55 77 91 83 63 52 7 25 52 27 310 114 58 11 48 44 27 10 357 350 342 332 327 317 299 276
46 51 70 68 73 98 135 140 95 43 21 349 66 77 70 59 37 53 28 325 22 35 336 1 35 356 47 82 29 6 356 349 337 327 311 296 280 266
53 50 58 65 32 5 24 31 26 20 30 7 36 37 48 46 57 56 354 341 127 359 347 348 344 334 9 11 48 8 6 357 347 338 321 302 279 251
71 37 37 48 18 355 2 44 67 31 117 54 24 20 41 12 345 351 46 15 43 68 4 4 328 333 360 31 20 7 358 358 353 357 351 345 341 230
73 86 53 16 2 358 360 28 46 36 25 51 62 122 193 138 191 328 350 354 13 7 27 344 326 18 3 60 28 6 351 2 350 358 16 11 360 30
34 24 23 11 15 21 2 31 30 15 38 49 37 23 40 43 33 20 11 0 6 10 20 347 342 1 318 7 53 13 3 5 360 357 20 29 42 52
25 27 29 1 24 28 36 22 37 22 38 76 68 45 56 49 37 39 36 38 30 16 326 345 325 358 323 49 9 345 20 18 12 18 20 28 61 58
25 21 357 356 358 91 41 18 62 40 35 49 59 50 34 40 38 55 58 46 64 34 21 25 41 41 37 39 26 1 1 20 21 27 33 42 45 42
8 78 81 100 75 33 38 42 52 48 48 40 45 44 31 41 43 29 15 53 59 47 33 44 48 49 63 47 50 55 41 45 20 31 40 49 46 46
27 30 19 19 22 42 35 33 44 42 40 36 47 52 40 44 43 42 51 75 78 58 48 50 65 67 59 42 57 49 52 51 32 42 50 56 47 52
47 32 21 11 11 6 22 27 23 22 39 38 37 49 49 46 55 59 59 51 63 58 44 344 192 178 115 65 42 50 53 52 42 47 58 67 67 63
36 15 23 28 15 1 350 358 34 25 18 63 50 39 49 51 43 56 63 68 68 69 52 25 42 80 89 72 11 22 57 65 74 69 67 71 77 78
32 27 33 24 18 9 5 354 349 7 33 11 43 86 92 68 66 63 56 74 79 82 72 55 54 50 86 67 79 42 17 54 78 95 114 103 87 133
19 30 21 15 29 19 14 7 349 333 329 41 12 360 53 93 105 91 85 59 77 91 88 79 63 294 135 168 98 57 45 47 52 347 278 239 133 146
15 9 14 18 20 32 13 1 12 351 337 175 178 189 311 132 75 98 117 98 85 78 86 82 327 253 223 94 89 113 115 109 100 78 53 38 352 81
11 6 7 12 21 21 18 360 356 359 359 340 336 358 158 167 118 120 124 115 115 111 116 125 201 128 78 110 151 135 128 109 95 82 63 35 59 69